This demonstration page uses our WeatherBlox Daily Observations layout. Learn more.

Left ArrowRight Arrow

41.55636, -103.73856

Hourly Observations for June 4, 2015

Temp ( °F °C ) Dew Point ( °F °C ) Humidity (%) Winds ( mph kmh ) Pressure ( in mb ) Visibility ( mi km ) Precip ( " mm )
12:53 am 00:53 Mostly Cloudy 65 18.3 57 13.9 76 76 E 20 31 29.8 1009 10 16.0934 0 0
1:53 am 01:53 Mostly Cloudy 65 18.3 57 13.9 76 76 SE 17 28 29.79 1009 10 16.0934 0 0
2:53 am 02:53 Mostly Cloudy 65 18.3 58 14.4 78 78 ESE 15 24 29.8 1009 10 16.0934 0 0
3:53 am 03:53 Mostly Cloudy 64 17.8 58 14.4 81 81 SE 6 9 29.83 1010 10 16.0934 0 0
4:32 am 04:32 Mostly Cloudy 63 17 57 14 83 83 ESE 8 13 29.83 1010 10 16.0934 0 0
4:53 am 04:53 Partly Cloudy 61 16.1 58 14.4 90 90 E 8 13 29.83 1010 10 16.0934 0 0
5:53 am 05:53 Mostly Cloudy 63 17.2 59 15 87 87 E 8 13 29.85 1011 10 16.0934 0 0
6:12 am 06:12 Cloudy 63 17 59 15 88 88 E 8 13 29.83 1010 10 16.0934 0 0
6:53 am 06:53 Cloudy 63 17.2 59 15 87 87 ESE 10 17 29.85 1011 10 16.0934 0 0
7:53 am 07:53 Partly Cloudy 67 19.4 60 15.6 79 79 ESE 14 22 29.86 1011 10 16.0934 0 0
8:14 am 08:14 Cloudy 66 19 61 16 83 83 ESE 13 20 29.83 1010 10 16.0934 0 0
8:53 am 08:53 Cloudy 67 19.4 59 15 76 76 E 15 24 29.88 1012 10 16.0934 0 0
9:25 am 09:25 Cloudy 68 20 59 15 73 73 ESE 14 22 29.8 1009 10 16.0934 0 0
9:53 am 09:53 Cloudy 69 20.6 60 15.6 73 73 SE 10 17 29.86 1011 10 16.0934 0 0
10:53 am 10:53 Cloudy 70 21.1 60 15.6 71 71 ESE 14 22 29.88 1012 10 16.0934 0 0
11:53 am 11:53 Cloudy 72 22.2 60 15.6 66 66 ESE 15 24 29.89 1012 10 16.0934 0 0
12:53 pm 12:53 Cloudy 66 18.9 59 15 78 78 E 18 30 29.91 1013 10 16.0934 0 0
1:33 pm 13:33 Cloudy 69 20.6 59 15 70 70 ESE 20 31 29.83 1010 10 16.0934 0 0
1:53 pm 13:53 Cloudy 70 21.1 60 15.6 71 71 SE 17 28 29.9 1013 10 16.0934 0 0
2:26 pm 14:26 Partly Cloudy 72 22 61 16 69 69 ESE 17 28 29.83 1010 10 16.0934 0 0
2:53 pm 14:53 Mostly Sunny 70 21.1 61 16.1 73 73 SE 16 26 29.9 1013 10 16.0934 0 0
3:53 pm 15:53 Sunny 69 20.6 60 15.6 73 73 ESE 16 26 29.91 1013 10 16.0934 0 0
4:53 pm 16:53 Sunny 68 20 60 15.6 76 76 SE 14 22 29.92 1013 10 16.0934 0 0
5:53 pm 17:53 Sunny 67 19.4 60 15.6 79 79 ESE 7 11 29.93 1014 10 16.0934 0 0
6:53 pm 18:53 Sunny 68 20 60 15.6 76 76 E 15 24 29.91 1013 10 16.0934 0 0
7:53 pm 19:53 Sunny 65 18.3 61 16.1 87 87 ESE 6 9 29.95 1014 10 16.0934 0 0
8:53 pm 20:53 Clear 63 17.2 60 15.6 90 90 Calm 29.98 1015 10 16.0934 0 0
9:53 pm 21:53 Clear 63 17.2 59 15 87 87 Calm 29.97 1015 10 16.0934 0 0
10:53 pm 22:53 Clear 63 17.2 60 15.6 90 90 ESE 8 13 29.97 1015 10 16.0934 0 0
11:53 pm 23:53 Mostly Cloudy 64 17.8 60 15.6 87 87 E 10 17 29.98 1015 10 16.0934 0 0

Powered by AerisWeather